Location: Canneto
(45.1500°N, 10.4167°E)
Time: 06:06:06
(UTC+00:00)

Daily predictions for brighter satellites

Satellite Brightness Start Highest point End
(mag) Time Altitude Azimuth Time Altitude Azimuth Time Altitude Azimuth
Cosmos 2227 4.2 17:45:40 10° SSW 17:51:23 77° ESE 17:57:08 10° NNE
HJ-1C 4.0 17:48:28 10° SE 17:51:28 34° ENE 17:54:29 10° N
Cosmos 1975 Rocket 3.3 17:48:00 10° N 17:52:12 46° ENE 17:56:21 10° SSE
Cosmos 1898 Rocket 3.5 17:49:04 10° SSW 17:54:14 82° ESE 17:59:27 10° NNE
ATLAS CENTAUR R/B 4.0 17:53:33 10° WNW 17:55:25 13° NW 17:57:16 10° N
Cosmos 1943 3.2 17:50:08 10° NNW 17:55:48 75° ENE 18:01:28 10° SSE
COSMO-SKYMED 1 3.5 17:52:08 10° N 17:56:23 55° WNW 18:00:37 10° SSW
USA 234 4.4 17:54:43 10° ENE 17:59:21 20° ESE 18:03:57 10° SSE
Cosmos 1867 3.9 17:57:15 10° NNW 18:02:37 52° NE 18:07:56 10° SE
Cosmos 858 Rocket 4.4 18:01:14 10° SSW 18:06:26 76° ESE 18:11:40 10° NNE
CSL-04 Debris 4.1 18:01:56 10° SSE 18:07:18 78° ENE 18:12:43 10° NNW
Lacrosse 5 rocket 3.4 18:03:49 10° W 18:07:26 26° NNW 18:11:12 10° NE
Cosmos 372 Rocket 4.4 18:04:01 10° S 18:08:50 39° ESE 18:13:40 10° NE
Sich 1 Rocket 3.8 18:06:19 10° SSE 18:10:39 50° E 18:15:04 10° NNE
Meteor 1-21 4.2 18:08:45 10° N 18:14:23 88° E 18:19:59 10° S
MOS 1 Rocket 3.3 18:10:42 10° NNE 18:15:03 50° E 18:19:13 10° S
Cosmos 807 4.3 18:12:00 10° S 18:15:05 88° E 18:18:46 10° N
CSL-04 Rocket 3.7 18:10:20 10° SSE 18:15:44 86° ENE 18:21:16 10° NNW
Cosmos 1603 4.1 18:10:40 10° NNW 18:16:18 67° WSW 18:21:51 10° SSE
SJ 16-02 3.5 18:14:54 10° SW 18:18:46 30° WNW 18:22:40 10° N
OBJECT-B 2.9 18:19:21 12° ENE 18:19:26 12° ENE 18:20:49 10° NE
Cosmos 1937 Rocket 3.7 18:17:07 10° SSW 18:22:22 80° WNW 18:27:38 10° NNE
Okean 2 Rocket 3.2 18:24:51 10° SSE 18:29:12 50° E 18:33:33 10° NNE
Abrixas rocket 2.7 18:27:18 10° W 18:30:02 42° N 18:31:44 19° ENE
Cosmos 1464 Rocket 4.0 18:24:47 10° S 18:30:46 61° E 18:36:51 10° NNE
Okean 1 Rocket 4.5 18:31:11 19° E 18:31:19 19° E 18:34:26 10° NE
SL-08 RB Rocket 3.8 18:27:08 10° SSE 18:31:37 54° ENE 18:36:04 10° N
NOSS 2-2 (E) 3.1 18:28:09 10° SW 18:31:39 81° NW 18:35:34 10° NE
ATLAS 2AS CENTAUR R/B 4.0 18:31:50 10° SSE 18:37:13 20° ESE 18:42:37 10° ENE
Cosmos 1300 Rocket 3.5 18:33:29 10° S 18:37:48 61° E 18:42:11 10° NNE
CZ-2C R/B 2.9 18:36:56 10° SW 18:39:07 15° S 18:39:59 14° SSE
NOSS 2-2 (D) 3.0 18:36:50 10° SW 18:40:19 85° NW 18:44:11 10° NE
USA 102 3.1 18:38:57 16° SSE 18:44:24 68° ENE 18:45:14 42° N
CENTAUR R/B 3.6 18:38:54 10° NNW 18:46:32 48° NE 18:51:59 22° ESE
BREEZE-M R/B 4.2 18:33:08 10° WSW 18:46:39 79° SSE 18:48:53 23° ENE
H-2A R/B 2.6 18:43:48 10° S 18:48:40 58° W 18:53:41 10° NNW
CZ-4 R/B 4.1 18:46:51 10° SW 18:50:08 22° W 18:53:26 10° NW
Cosmos 1674 3.3 18:48:12 10° N 18:51:47 35° ENE 18:52:10 34° E
ATLAS 3B R/B 4.1 18:47:41 10° NNW 18:53:04 24° NNE 18:56:56 15° ENE
Exosat Rocket 4.0 18:48:29 10° S 18:53:45 38° ESE 18:58:23 10° NE
ISS -3.8 18:51:33 10° WSW 18:54:55 87° NNW 18:56:09 37° ENE
Cosmos 1048 Rocket 4.1 18:49:57 10° NNW 18:55:13 60° ENE 18:58:02 27° SE
Cosmos 1536 Rocket 3.5 18:51:54 10° N 18:56:21 66° E 18:58:59 24° SSE
USA 238 DEB 3.9 18:50:54 10° NW 18:58:06 67° NE 19:02:30 27° SE
USA 238 3.9 18:51:01 10° NW 18:58:12 67° NE 19:02:35 27° SE
In-Cosmos 22 4.0 18:53:38 10° N 18:58:58 89° WSW 19:04:19 10° S
ARGOS 3.7 18:56:54 10° S 19:02:11 60° W 19:07:31 10° NNW
Meteor 1-24 Rocket 4.5 18:59:15 10° N 19:04:08 31° ENE 19:04:56 30° E
CZ-2C R/B 2.6 19:00:45 10° NNE 19:06:19 76° ESE 19:11:55 10° S
Cosmos 1025 Rocket 3.2 19:01:57 10° NNW 19:06:19 73° W 19:10:02 14° S
Cosmos 1707 4.0 19:05:52 10° NNW 19:09:30 41° W 19:13:06 10° SSW
Cosmos 2151 Rocket 3.6 19:06:11 10° S 19:10:37 83° W 19:15:08 10° N
KORONAS-FOTON 3.8 19:09:31 10° N 19:13:25 62° E 19:13:36 61° E
USA 186 2.8 19:13:02 27° SSW 19:14:20 44° W 19:17:27 10° NNW
Ariane Rocket 3.2 19:12:56 15° S 19:17:06 70° WSW 19:22:11 10° NNW
SJ-6B 2.9 19:16:15 38° S 19:17:32 69° WSW 19:21:18 10° NNW
CREW DRAGON DEMO-1 DEB 4.4 19:15:34 10° NW 19:18:00 27° N 19:18:00 27° N
FREGAT/IRIS 3.9 19:20:39 34° NW 19:20:39 34° NW 19:22:24 10° NNW
Cosmos 1844 3.6 19:14:23 10° SSW 19:20:02 65° ESE 19:25:38 10° NNE
Cosmos 2263 Rocket 4.3 19:17:56 10° WSW 19:22:33 26° NW 19:27:12 10° N
Nadezhda 4 Rocket 4.0 19:17:47 10° N 19:23:55 76° W 19:29:17 14° S
Cosmos 494 Rocket 3.9 19:19:40 10° NNW 19:24:56 69° ENE 19:26:06 52° SE
MOS 1 4.5 19:21:25 18° S 19:25:46 71° WSW 19:31:29 10° NNW
NOSS 3-2 (A) 4.1 19:18:15 10° NW 19:25:51 85° SW 19:30:19 32° SSE
Cosmos 2034 Rocket 4.3 19:22:04 10° SSW 19:28:26 71° W 19:34:47 10° N
Cosmos 1844 Rocket 2.6 19:23:11 10° SSW 19:28:45 88° WNW 19:34:23 10° NNE
Cosmos 2298 Rocket 4.5 19:25:53 10° SSW 19:31:10 62° WNW 19:36:28 10° NNE
SPOT 3 Rocket 3.4 19:32:57 56° SE 19:34:01 78° ENE 19:39:11 10° NNW
Resurs 01 Rocket 1.8 19:42:54 62° NNE 19:42:54 62° NNE 19:46:47 10° N
USA 234 3.1 19:37:13 14° NE 19:43:04 74° SE 19:49:37 10° SW
Lacrosse 5 rocket 3.8 19:44:51 10° NW 19:47:53 18° N 19:49:27 15° NNE
OBJECT-B 2.8 19:52:34 28° NW 19:52:34 28° NW 19:54:30 10° NNW
Cosmos 1833 Rocket 3.6 19:46:41 10° NNW 19:51:25 34° NE 19:51:25 34° NE
Cosmos 1626 4.0 19:54:20 10° N 19:56:03 26° N 19:56:03 26° N
ARIANE 5 R/B 3.8 20:01:02 34° N 20:01:02 34° N 20:03:38 10° N
NOSS 3-2 (C) 4.0 19:53:04 10° NW 20:00:40 82° SW 20:03:03 52° SSE
Cosmos 1634 Rocket 3.9 19:59:03 47° S 20:00:59 87° W 20:07:14 10° N
BREEZE-M TANK 3.2 19:59:00 10° W 20:04:38 58° W 20:04:38 58° W
Cosmos 2285 Rocket 4.3 20:02:24 10° SSW 20:08:40 64° WNW 20:14:59 10° NNE
Cosmos 1125 Rocket 4.4 20:03:39 10° SW 20:08:46 48° WNW 20:13:56 10° NNE
Okean 1 Rocket 4.1 20:08:19 42° W 20:08:52 44° WNW 20:13:11 10° N
ERS-1 Rocket 4.5 20:17:26 27° NNE 20:17:26 27° NNE 20:20:03 10° N
ATLAS 2AS CENTAUR R/B 2.9 20:19:15 10° SSW 20:27:13 84° SE 20:35:08 10° NE
Cosmos 2098 Rocket 4.3 20:24:00 10° N 20:30:00 59° NNE 20:30:00 59° NNE
ISS -0.3 20:29:03 10° WNW 20:29:08 10° WNW 20:29:08 10° WNW
Cosmos 2082 Rocket 3.4 20:28:39 10° NNW 20:32:16 33° NNE 20:32:16 33° NNE
CENTAUR R/B 3.5 20:29:38 10° NW 20:37:39 58° WSW 20:39:10 52° SSW
Cosmos 2279 Rocket 4.3 20:44:35 63° NW 20:44:35 63° NW 20:50:17 10° N
COSMOS 2406 3.9 20:39:00 10° NNW 20:43:10 50° NW 20:43:10 50° NW
ATLAS 3B R/B 2.9 20:38:04 10° NW 20:44:10 66° N 20:44:10 66° N
Terra 4.1 21:02:36 20° N 21:02:36 20° N 21:04:03 10° N
Cosmos 2278 Rocket 4.4 21:07:57 16° NNE 21:07:57 16° NNE 21:09:04 10° NNE
Lacrosse 4 Rocket 4.5 21:06:19 10° NNW 21:06:37 12° NNW 21:06:37 12° NNW
USA 234 4.0 21:24:44 42° N 21:25:52 47° NNW 21:32:03 10° W
ATLAS 2AS CENTAUR R/B 4.3 22:11:58 10° W 22:19:05 34° NNW 22:26:04 10° NNE
